PBO Station Position Time Series. Reference Frame : NAM14
Format Version,1.1.1
4-character ID,PMAR
Station name,Pine_Marten
Begin Date, 2002-04-30
End Date, 2023-06-26
Release Date, 2023-06-27
Reference position, 43.9906725893 North Latitude, -121.6867480495 East Longitude, 2347.75146 meters elevation,
Date, North (mm), East (mm), Vertical (mm), North Std. Deviation (mm), East Std. Deviation (mm),              Vertical Std. Deviation (mm), Quality,
2002-04-30,0.00, 0.00, 0.00, 2.27, 1.63, 7.78, repro,
2002-05-01,-0.63, 0.37, -0.06, 2.51, 1.83, 8.64, repro,
2002-05-02,-1.75, 0.26, 1.46, 3.62, 2.53, 11.60, repro,
2002-05-03,-2.80, 2.82, -1.87, 3.07, 2.15, 10.04, repro,
2002-05-04,-1.90, 1.56, 0.41, 2.21, 1.61, 7.56, repro,
2002-05-05,-0.01, 5.33, -6.95, 2.22, 1.63, 7.63, repro,
2002-05-06,-1.42, 3.44, -10.82, 3.01, 2.10, 9.91, repro,
2002-05-07,-2.49, 3.81, -7.51, 2.26, 1.67, 7.69, repro,
2002-05-08,-3.20, 2.15, -2.07, 2.21, 1.62, 7.56, repro,
2002-05-09,-2.14, 1.41, -1.29, 2.23, 1.62, 7.57, repro,
2002-05-10,-1.81, 0.13, 2.64, 2.21, 1.62, 7.51, repro,
2002-05-11,-1.09, -0.64, 0.53, 3.91, 2.69, 12.62, repro,
2002-05-12,-2.61, 2.46, -8.23, 2.23, 1.65, 7.67, repro,
2002-05-13,-1.03, 2.29, -8.30, 2.22, 1.66, 7.63, repro,
2002-05-14,-2.26, 2.92, -1.27, 2.25, 1.64, 7.59, repro,
2002-05-15,-2.24, 1.72, 0.50, 2.24, 1.66, 7.65, repro,
2002-05-16,-2.92, 2.91, 0.43, 2.22, 1.61, 7.50, repro,
2002-05-17,-2.28, 3.83, 3.92, 2.20, 1.62, 7.48, repro,
2002-05-19,-2.62, 0.95, 1.25, 2.22, 1.62, 7.50, repro,
2002-05-20,-2.92, 2.57, 1.30, 2.27, 1.63, 7.61, repro,
2002-05-21,-1.80, 3.01, 7.68, 2.25, 1.61, 7.49, repro,
2002-05-22,-1.73, 3.21, -2.59, 2.23, 1.60, 7.46, repro,
2002-05-23,-1.41, 2.95, 2.00, 2.21, 1.61, 7.47, repro,
2002-05-24,-3.43, 3.19, 4.79, 2.25, 1.65, 7.65, repro,
2002-05-25,-3.27, 3.61, 4.33, 2.26, 1.65, 7.67, repro,
2002-05-26,-0.80, 2.72, -0.16, 2.26, 1.65, 7.68, repro,
2002-05-27,0.16, 4.90, -6.34, 2.22, 1.62, 7.43, repro,
2002-05-28,0.10, 5.32, 1.28, 2.26, 1.63, 7.62, repro,
2002-05-29,0.13, 6.79, 6.42, 2.25, 1.62, 7.58, repro,
2002-05-30,-1.99, 1.37, 7.39, 2.29, 1.67, 7.78, repro,
2002-05-31,-2.09, 3.84, 7.15, 2.29, 1.67, 7.70, repro,
2002-06-01,-1.95, 2.95, 4.65, 2.29, 1.70, 7.75, repro,
2002-06-02,-3.77, 2.61, 5.70, 2.25, 1.62, 7.53, repro,
2002-06-03,-0.03, 3.30, 6.84, 2.23, 1.64, 7.57, repro,
2002-06-04,-1.82, 1.87, 7.19, 2.25, 1.66, 7.70, repro,
2002-06-05,-2.25, 7.45, 1.35, 2.24, 1.65, 7.61, repro,
2002-06-06,-1.37, 3.83, 8.42, 2.26, 1.63, 7.54, repro,
2002-06-07,-1.68, 3.62, 4.13, 2.33, 1.72, 7.97, repro,
2002-06-08,-0.53, 3.94, 7.96, 2.27, 1.65, 7.75, repro,
2002-06-09,-1.18, 4.45, 7.73, 2.26, 1.67, 7.76, repro,
2002-06-10,-4.50, 3.12, 7.26, 2.26, 1.69, 7.78, repro,
2002-06-11,-2.93, 3.75, 2.90, 2.56, 1.91, 8.70, repro,
2002-06-12,-1.27, 1.87, 4.49, 2.25, 1.73, 7.92, repro,
2002-06-13,-2.24, 3.36, 6.98, 2.26, 1.74, 7.99, repro,
2002-06-14,-2.65, 4.95, 1.29, 2.32, 1.82, 8.30, repro,
2002-06-15,1.27, 4.17, 5.60, 3.20, 2.28, 10.57, repro,
2002-06-16,-0.77, 4.70, 6.96, 2.24, 1.67, 7.69, repro,
2002-06-17,-2.07, 7.15, 6.97, 2.23, 1.68, 7.73, repro,
2002-06-18,1.26, 3.90, 12.63, 2.24, 1.68, 7.75, repro,
2002-06-19,-2.54, 4.66, 3.57, 2.27, 1.73, 8.00, repro,
2002-06-20,-3.19, 3.11, 8.27, 2.24, 1.68, 7.76, repro,
2002-06-21,-3.23, 2.92, 6.07, 2.30, 1.74, 8.03, repro,
2002-06-22,-1.98, 4.89, 9.62, 2.24, 1.67, 7.63, repro,
2002-06-23,-1.24, 5.26, 10.51, 2.20, 1.60, 7.46, repro,
2002-06-24,-2.45, 4.99, 7.81, 2.21, 1.61, 7.50, repro,
2002-06-25,-2.63, 5.25, 6.21, 2.23, 1.62, 7.57, repro,
2002-06-26,-3.44, 5.46, 4.61, 2.34, 1.84, 8.45, repro,
2002-06-27,-1.04, 3.43, 15.51, 2.35, 1.84, 8.55, repro,
2002-06-28,-0.24, 6.42, 9.04, 2.34, 1.80, 8.33, repro,
2002-06-29,3.86, 7.14, 10.93, 2.39, 1.82, 8.43, repro,
2002-06-30,-1.08, 8.01, 5.22, 2.25, 1.72, 7.85, repro,
2002-07-01,-3.43, 4.60, 9.90, 2.40, 1.81, 8.27, repro,
2002-07-02,-3.02, 5.73, 14.91, 2.25, 1.68, 7.78, repro,
2002-07-03,-2.24, 4.07, 9.90, 2.52, 1.87, 8.66, repro,
2002-07-04,-0.35, 5.45, 11.65, 2.24, 1.72, 7.82, repro,
2002-07-05,-0.48, 4.79, 13.90, 2.52, 1.89, 8.60, repro,
2002-07-06,-1.55, 7.31, 13.72, 4.41, 3.08, 14.75, repro,
2002-07-07,-1.14, 4.61, 3.90, 2.22, 1.62, 7.56, repro,
2002-07-08,-3.28, 7.53, 2.15, 2.21, 1.61, 7.48, repro,
2002-07-11,-0.40, 4.90, 7.54, 2.23, 1.62, 7.56, repro,
2002-07-12,-2.01, 5.82, 0.18, 2.30, 1.64, 7.69, repro,
2002-07-13,0.44, 6.55, 6.40, 2.23, 1.61, 7.55, repro,
2002-07-14,-1.82, 5.23, 10.23, 2.41, 1.76, 8.14, repro,
2002-07-15,0.84, 4.46, 13.82, 4.11, 2.97, 13.90, repro,
2002-07-16,0.95, 4.98, 11.96, 2.24, 1.60, 7.49, repro,
2002-07-17,0.39, 4.83, 0.08, 2.63, 1.96, 9.03, repro,
2002-07-18,-0.39, 7.19, 4.80, 2.79, 1.97, 9.16, repro,
2002-07-19,-1.43, 8.66, 1.53, 2.82, 1.97, 9.18, repro,
2002-07-20,-1.29, 5.42, 6.73, 2.23, 1.61, 7.51, repro,
2002-07-21,-0.48, 4.87, 8.72, 2.24, 1.66, 7.66, repro,
2002-07-22,-1.74, 7.20, -4.75, 3.01, 2.14, 10.03, repro,
2002-07-23,0.62, 5.50, 5.10, 2.28, 1.66, 7.80, repro,
2002-07-24,-0.58, 3.72, -0.25, 2.24, 1.66, 7.68, repro,
2002-07-25,0.40, 7.37, 0.78, 2.24, 1.61, 7.52, repro,
2002-07-26,-1.37, 6.83, -3.23, 2.31, 1.71, 7.88, repro,
2002-07-27,0.33, 5.69, 9.34, 2.25, 1.62, 7.57, repro,
2002-07-28,-1.05, 4.89, -3.68, 2.32, 1.69, 7.83, repro,
2002-07-29,0.26, 3.68, -2.23, 2.40, 1.75, 7.99, repro,
2002-07-30,-0.22, 8.43, 4.51, 2.93, 2.04, 9.38, repro,
2002-07-31,-1.37, 5.71, 0.22, 2.39, 1.69, 7.84, repro,
2002-08-01,-0.64, 6.47, 1.77, 2.30, 1.64, 7.64, repro,
2002-08-02,-1.76, 6.40, 6.00, 2.35, 1.71, 7.90, repro,
2002-08-03,-2.61, 5.56, 1.43, 2.44, 1.70, 8.00, repro,
2002-08-04,-4.48, 6.23, -9.86, 5.64, 4.05, 19.86, repro,
2002-08-05,-2.39, 5.95, 4.94, 2.26, 1.61, 7.54, repro,
2002-08-06,-2.21, 5.95, 4.27, 2.24, 1.61, 7.50, repro,
2002-08-07,-3.31, 4.70, 0.22, 2.35, 1.70, 7.82, repro,
2002-08-08,-0.90, 5.76, -2.80, 2.26, 1.65, 7.64, repro,
2002-08-09,-2.83, 3.19, 5.37, 3.41, 2.34, 10.81, repro,
2002-08-10,-2.68, 6.79, 4.89, 2.28, 1.67, 7.77, repro,
2002-08-11,-2.79, 4.31, 2.69, 3.67, 2.35, 10.93, repro,
2002-08-12,-2.73, 5.45, 6.14, 2.39, 1.72, 7.89, repro,
2002-08-13,-1.64, 5.69, 7.56, 2.43, 1.81, 8.11, repro,
2002-08-14,0.29, 4.95, 0.53, 2.43, 1.72, 8.08, repro,
2002-08-15,-1.55, 6.68, 1.10, 2.39, 1.78, 8.13, repro,
2002-08-16,-1.95, 7.95, 8.94, 2.27, 1.65, 7.71, repro,
2002-08-17,-1.85, 6.75, 17.56, 2.27, 1.71, 7.84, repro,
2002-08-18,-1.63, 7.59, 9.02, 2.30, 1.73, 7.97, repro,
2002-08-19,-0.46, 6.81, 11.65, 2.24, 1.67, 7.74, repro,
2002-08-20,0.46, 8.08, 5.75, 2.23, 1.68, 7.70, repro,
2002-08-21,-2.76, 6.73, 5.95, 2.22, 1.62, 7.58, repro,
2002-08-22,-1.09, 6.14, 12.10, 2.20, 1.60, 7.44, repro,
2002-08-23,-3.30, 6.48, -0.81, 2.21, 1.65, 7.57, repro,
2002-08-24,-0.65, 7.18, 1.37, 3.23, 2.22, 10.35, repro,
2002-08-25,-1.14, 4.57, 3.60, 2.25, 1.69, 7.84, repro,
2002-08-26,-2.58, 6.58, 2.76, 3.18, 2.47, 11.25, repro,
2002-08-28,-0.08, 5.36, 3.43, 2.23, 1.65, 7.60, repro,
2002-08-29,-2.33, 8.87, 3.32, 2.23, 1.61, 7.48, repro,
2002-08-30,-0.49, 6.79, 11.89, 2.30, 1.64, 7.64, repro,
2002-08-31,-2.45, 5.82, 11.19, 2.35, 1.73, 7.99, repro,
2002-09-01,-2.17, 5.27, 12.12, 2.20, 1.62, 7.51, repro,
2002-09-02,-3.10, 6.45, 8.73, 2.20, 1.61, 7.50, repro,
2002-09-03,0.13, 8.03, 7.23, 2.29, 1.62, 7.71, repro,
2002-09-04,0.50, 4.67, 4.85, 3.32, 2.22, 10.84, repro,
2002-09-05,-1.62, 5.65, 15.21, 2.19, 1.61, 7.48, repro,
2002-09-06,-2.56, 7.13, 7.98, 2.40, 1.72, 8.17, repro,
2002-09-07,-5.03, 7.07, 6.05, 2.84, 2.04, 9.39, repro,
2002-09-08,-5.89, 8.13, 12.84, 2.27, 1.66, 7.82, repro,
2002-09-09,-2.05, 7.34, 11.67, 2.74, 2.07, 9.51, repro,
2002-09-10,-2.37, 6.84, 12.13, 2.21, 1.62, 7.55, repro,
2003-01-01,-3.09, 8.57, -22.16, 2.50, 1.83, 8.55, repro,
2003-01-02,-0.16, 12.35, -38.47, 2.41, 1.81, 8.35, repro,
2003-01-03,2.01, 14.59, -18.85, 2.41, 1.85, 8.40, repro,
2003-01-04,1.12, 12.99, 2.63, 2.50, 1.91, 8.71, repro,
2003-01-05,-4.47, 8.82, -6.73, 2.40, 1.84, 8.24, repro,
2003-01-06,-3.85, 6.60, -10.52, 2.69, 2.09, 9.58, repro,
2003-01-07,-2.10, 4.64, -3.18, 2.49, 1.96, 8.64, repro,
2003-01-08,-2.74, 2.94, 3.88, 2.41, 1.82, 8.19, repro,
2003-01-09,-1.94, 3.58, 7.11, 2.39, 1.78, 7.95, repro,
2003-01-10,-1.81, 3.04, 5.23, 2.38, 1.82, 8.08, repro,
2003-01-11,-1.82, 4.36, 1.70, 2.33, 1.73, 7.85, repro,
2003-01-12,1.31, 4.35, 1.39, 2.34, 1.70, 7.81, repro,
2003-01-13,-5.20, 2.48, -11.04, 2.31, 1.76, 7.89, repro,
2003-01-14,-3.89, 2.60, -14.37, 2.31, 1.70, 7.76, repro,
2003-01-15,-5.25, 3.19, -16.61, 2.31, 1.75, 7.90, repro,
2003-01-16,-4.80, 2.58, -15.99, 2.33, 1.73, 7.83, repro,
2003-01-17,-2.12, 3.11, -10.39, 2.40, 1.72, 7.89, repro,
2003-01-18,-2.43, 2.82, 9.10, 2.31, 1.68, 7.68, repro,
2003-01-19,-1.43, 5.64, 8.56, 2.76, 2.10, 9.25, repro,
2003-01-20,-0.70, 6.51, 7.27, 2.31, 1.70, 7.75, repro,
2003-01-21,-2.13, 4.75, 6.99, 2.34, 1.74, 7.86, repro,
2003-01-22,0.06, 3.67, 4.62, 4.12, 3.05, 14.39, repro,
2003-01-23,-3.45, 7.69, -1.98, 2.57, 1.83, 8.21, repro,
2003-01-24,-4.07, 4.26, -13.30, 2.39, 1.70, 7.82, repro,
2003-01-25,0.48, 5.22, -46.60, 6.17, 4.73, 23.76, repro,
2003-01-26,-1.84, 4.07, 6.52, 4.79, 3.64, 17.79, repro,
2003-01-27,-2.89, 6.77, -3.01, 2.59, 1.90, 8.53, repro,
2003-01-28,-5.22, 2.50, 1.45, 2.53, 1.94, 8.50, repro,
2003-01-29,-2.46, 5.47, -0.06, 2.60, 1.85, 8.56, repro,
2003-01-30,-0.43, 4.74, -0.43, 2.73, 1.88, 8.62, repro,
2003-01-31,-1.41, 3.13, -9.09, 2.49, 1.83, 8.16, repro,
2003-02-01,-2.78, 5.95, -2.74, 2.83, 2.14, 10.17, repro,
2003-02-02,-2.53, 4.06, -3.97, 2.50, 1.83, 8.15, repro,
2003-02-03,-2.32, 3.35, -5.34, 2.58, 1.85, 8.30, repro,
2003-02-04,-3.39, 3.67, 2.16, 2.70, 1.98, 9.03, repro,
2003-02-05,-3.74, 4.24, 2.40, 2.67, 1.98, 8.95, repro,
2003-02-06,-1.17, 3.88, 3.97, 2.74, 2.06, 9.25, repro,
2003-02-07,-4.08, 3.15, -3.09, 2.81, 2.10, 9.47, repro,
2003-02-08,-5.16, 1.85, -0.52, 3.21, 2.48, 10.26, repro,
2003-02-09,-5.83, 3.80, 5.20, 2.80, 2.07, 9.30, repro,
2003-02-10,-4.15, 4.67, 2.26, 3.41, 2.45, 10.50, repro,
2003-02-11,-5.78, 3.15, -2.78, 2.43, 1.91, 8.42, repro,
2003-02-12,-3.29, 3.85, 4.14, 2.43, 1.83, 8.15, repro,
2003-02-13,-1.89, 5.04, 1.30, 3.48, 2.71, 11.38, repro,
2003-02-14,-1.58, 2.95, 1.29, 2.57, 1.88, 8.49, repro,
2003-02-15,-1.10, 4.07, 0.11, 2.47, 1.83, 8.17, repro,
2003-02-16,-2.90, 3.84, 7.26, 2.52, 1.90, 8.40, repro,
2003-02-17,-2.92, 5.45, 10.77, 3.19, 2.38, 10.30, repro,
2003-02-18,-2.59, 4.55, -5.94, 2.51, 1.90, 8.45, repro,
2003-02-19,-2.10, 3.32, -6.70, 2.36, 1.77, 7.96, repro,
2003-02-20,-4.42, 4.50, -8.23, 2.31, 1.72, 7.76, repro,
2003-02-21,-1.76, 5.49, -9.04, 2.31, 1.67, 7.74, repro,
2003-02-22,-4.12, 3.34, -21.35, 2.40, 1.77, 8.05, repro,
2003-02-23,-2.04, 3.16, -23.53, 2.35, 1.73, 7.95, repro,
2003-02-24,-3.39, 1.76, -29.40, 2.34, 1.72, 7.90, repro,
2003-02-25,-3.39, 4.16, -15.52, 2.28, 1.68, 7.68, repro,
2003-02-26,-5.45, 3.73, 2.21, 2.25, 1.64, 7.57, repro,
2003-02-27,-4.62, 4.97, -0.81, 2.42, 1.73, 8.13, repro,
2003-02-28,-2.77, 4.61, 1.59, 2.25, 1.64, 7.52, repro,
2003-03-01,-1.71, 3.88, -1.80, 2.33, 1.74, 7.90, repro,
2003-03-02,-1.57, 4.79, 5.30, 2.33, 1.73, 7.87, repro,
2003-03-03,-2.47, 4.82, -0.76, 3.84, 3.08, 14.30, repro,
2003-03-04,-1.71, 4.73, -3.35, 3.68, 2.89, 13.45, repro,
2003-03-05,-1.91, 7.29, 13.95, 2.34, 1.69, 7.77, repro,
2003-03-06,-2.34, 2.37, 12.97, 3.68, 2.90, 13.39, repro,
2003-03-07,-3.46, 1.58, 12.55, 2.62, 1.87, 8.61, repro,
2003-03-08,-2.33, 5.23, -7.99, 2.35, 1.71, 8.06, repro,
2003-03-09,-4.17, 2.86, -18.10, 2.27, 1.66, 7.65, repro,
2003-03-10,-5.27, 8.22, -31.01, 2.33, 1.69, 7.81, repro,
2003-03-11,-1.73, 11.24, -34.74, 2.28, 1.68, 7.67, repro,
2003-03-12,-2.98, 14.79, 8.69, 2.52, 1.78, 8.24, repro,
2003-03-13,1.10, 4.88, 10.08, 2.40, 1.72, 7.93, repro,
2003-03-14,-1.34, 6.29, 7.92, 2.33, 1.71, 7.88, repro,
2003-03-15,-0.90, 4.84, 9.76, 2.34, 1.72, 7.92, repro,
2003-03-16,-1.97, 4.55, -0.65, 2.28, 1.68, 7.71, repro,
2003-03-17,-1.27, 3.85, -0.56, 2.29, 1.69, 7.76, repro,
2003-03-18,-1.77, 5.95, 2.08, 2.31, 1.70, 7.81, repro,
2003-03-20,-0.96, 6.26, 2.80, 2.31, 1.72, 7.90, repro,
2003-03-21,-1.24, 7.32, -9.04, 2.29, 1.69, 7.72, repro,
2003-03-22,-2.34, 2.28, -5.74, 4.35, 3.11, 15.16, repro,
2003-03-23,-1.81, 1.80, -16.62, 2.28, 1.65, 7.60, repro,
2003-03-24,-1.65, 2.34, -16.61, 2.31, 1.70, 7.80, repro,
2003-03-25,-2.09, 2.33, -18.03, 2.34, 1.74, 7.98, repro,
2003-03-26,-0.49, 2.48, -20.60, 2.27, 1.66, 7.60, repro,
2003-03-28,-0.16, 1.48, -28.05, 2.34, 1.73, 7.91, repro,
2003-03-29,-0.98, 4.11, -17.81, 2.48, 1.86, 8.44, repro,
2003-03-30,-1.64, 5.95, -0.56, 2.29, 1.70, 7.81, repro,
2003-03-31,-1.06, 5.31, 14.58, 2.29, 1.69, 7.76, repro,
2003-04-01,-0.46, 4.75, 8.84, 2.33, 1.72, 7.89, repro,
2003-04-02,-1.68, 3.74, 5.88, 2.25, 1.64, 7.47, repro,
2003-04-03,-3.00, 4.52, 1.33, 2.37, 1.76, 8.04, repro,
2003-04-04,-2.99, 4.08, -10.49, 2.29, 1.69, 7.78, repro,
2003-04-05,-3.50, 4.67, -14.35, 2.27, 1.66, 7.61, repro,
2003-04-06,-1.28, 2.05, -11.72, 2.24, 1.64, 7.49, repro,
2003-04-07,-0.92, 2.21, -9.63, 2.26, 1.65, 7.53, repro,
2003-04-08,0.35, 5.61, 8.45, 2.24, 1.64, 7.50, repro,
2003-04-09,-3.46, 6.39, 3.60, 2.29, 1.71, 7.85, repro,
2003-04-10,0.03, 6.06, -1.13, 2.26, 1.70, 7.76, repro,
2003-04-11,-2.26, 4.54, -3.53, 2.23, 1.64, 7.48, repro,
2003-04-12,0.49, 3.93, 2.78, 2.25, 1.65, 7.55, repro,
2003-04-13,-1.20, 4.24, 5.40, 2.23, 1.61, 7.40, repro,
2003-04-14,-3.35, 4.44, 5.52, 2.20, 1.59, 7.35, repro,
2003-04-15,-3.12, 3.44, 7.66, 2.23, 1.61, 7.41, repro,
2003-04-16,-1.86, 1.42, -11.09, 3.70, 2.55, 11.76, repro,
2003-04-17,-2.31, 4.29, -2.16, 2.23, 1.63, 7.49, repro,
2003-04-18,-1.73, 3.98, 0.67, 2.23, 1.64, 7.56, repro,
2003-04-19,-1.53, 2.60, -1.11, 2.22, 1.61, 7.41, repro,
2003-04-20,-3.46, 4.13, 7.29, 2.24, 1.62, 7.44, repro,
2003-04-21,-2.11, 3.49, -9.05, 2.37, 1.73, 7.94, repro,
2003-04-22,-1.25, 3.67, 4.83, 2.25, 1.66, 7.57, repro,
2003-04-23,-1.91, 4.46, 0.06, 2.23, 1.63, 7.52, repro,
2003-04-24,-0.37, 3.34, -5.09, 2.23, 1.64, 7.58, repro,
2003-04-25,-0.73, 2.37, -2.64, 2.23, 1.61, 7.39, repro,
2003-04-26,-1.93, 4.03, -1.38, 2.24, 1.62, 7.53, repro,
2003-04-27,-4.43, 3.50, -5.89, 2.32, 1.65, 7.56, repro,
2003-04-29,-4.02, 4.12, -1.91, 2.25, 1.65, 7.59, repro,
2003-04-30,-3.53, 4.01, -3.30, 2.28, 1.63, 7.55, repro,
2003-05-01,-3.75, 3.86, -8.02, 2.26, 1.61, 7.46, repro,
2003-05-02,-3.45, 4.46, 0.37, 2.60, 1.92, 8.72, repro,
2003-05-03,-2.58, 3.79, 8.13, 2.24, 1.64, 7.39, repro,
2003-05-04,-3.78, 4.85, 13.32, 2.24, 1.62, 7.44, repro,
2003-05-05,-4.00, 3.89, 9.02, 2.23, 1.61, 7.39, repro,
2003-05-06,-5.43, 3.73, 6.07, 2.25, 1.60, 7.37, repro,
2003-05-07,-3.60, 3.10, 9.31, 2.26, 1.60, 7.36, repro,
2003-05-08,-3.58, 2.48, 9.57, 2.29, 1.65, 7.58, repro,
2003-05-09,-3.54, 3.02, -15.65, 2.29, 1.65, 7.59, repro,
2003-05-10,-4.89, 3.18, -6.41, 2.30, 1.64, 7.55, repro,
2003-05-11,-2.22, 6.74, -25.20, 2.39, 1.67, 7.69, repro,
2003-05-12,-6.30, 3.82, -0.43, 2.25, 1.60, 7.35, repro,
2003-05-13,-1.43, 8.56, 9.67, 4.12, 2.82, 12.11, repro,
2003-05-14,-2.07, 6.20, 10.40, 2.35, 1.69, 7.84, repro,
2003-05-15,-3.42, 4.72, 15.74, 2.30, 1.65, 7.74, repro,
2003-05-16,-5.43, 5.89, 8.90, 2.22, 1.59, 7.31, repro,
2003-05-17,-3.69, 6.35, -1.03, 2.27, 1.64, 7.51, repro,
2003-05-18,-2.61, 3.87, -1.35, 2.25, 1.58, 7.30, repro,
2003-05-19,-4.23, 4.15, -1.13, 2.25, 1.58, 7.32, repro,
2003-05-20,-2.93, 4.98, -4.20, 2.24, 1.61, 7.36, repro,
2003-05-21,-3.43, 4.60, 9.77, 2.28, 1.61, 7.53, repro,
2003-05-22,-0.48, 3.81, 10.76, 2.24, 1.60, 7.37, repro,
2003-05-23,-2.56, 6.51, 4.83, 2.23, 1.59, 7.38, repro,
2003-05-24,-3.98, 7.36, 0.69, 2.30, 1.61, 7.63, repro,
2003-05-25,-1.86, 5.98, 5.31, 2.51, 1.81, 8.40, repro,
2003-05-26,-0.09, 6.02, 15.23, 4.00, 2.90, 12.70, repro,
2003-05-27,-2.27, 6.75, -1.78, 2.37, 1.71, 7.91, repro,
2003-05-28,-1.09, 5.82, 5.19, 2.32, 1.68, 7.70, repro,
2003-05-29,-4.00, 7.52, 8.34, 2.30, 1.72, 7.84, repro,
2003-05-30,-1.94, 5.51, 7.29, 2.26, 1.65, 7.60, repro,
2003-05-31,-2.44, 3.58, 7.56, 2.23, 1.60, 7.38, repro,
2003-06-01,-2.56, 6.44, 3.64, 2.22, 1.59, 7.30, repro,
2003-06-02,-3.70, 7.67, 1.06, 2.38, 1.67, 7.80, repro,
2003-06-03,-1.62, 6.91, 8.48, 2.35, 1.65, 7.62, repro,
2003-06-04,-3.43, 5.78, 1.95, 2.31, 1.62, 7.49, repro,
2003-06-05,-3.62, 5.42, 8.81, 2.28, 1.60, 7.36, repro,
2003-06-06,-3.33, 5.78, 4.04, 2.33, 1.65, 7.58, repro,
2003-06-07,-3.10, 5.38, -5.17, 3.33, 2.32, 10.62, repro,
2003-06-12,-1.18, 6.65, 5.29, 3.82, 2.66, 11.80, repro,
2003-06-13,-2.86, 9.15, 8.30, 2.37, 1.67, 7.69, repro,
2003-06-14,-2.27, 6.10, 6.59, 2.33, 1.64, 7.63, repro,
2003-06-15,-2.86, 6.46, 3.21, 2.20, 1.58, 7.23, repro,
2003-06-16,-1.47, 7.73, 6.46, 2.31, 1.67, 7.59, repro,
2003-06-17,-2.42, 8.03, 7.02, 2.73, 2.01, 9.38, repro,
2003-06-18,-3.41, 5.65, 7.67, 2.27, 1.61, 7.46, repro,
2003-06-19,-4.33, 7.10, 8.90, 2.23, 1.59, 7.43, repro,
2003-06-20,-1.98, 9.00, 9.85, 2.25, 1.60, 7.38, repro,
2003-06-21,-1.81, 8.29, 10.20, 2.22, 1.61, 7.38, repro,
2003-06-22,-3.56, 6.45, 9.80, 2.23, 1.58, 7.33, repro,
2003-06-23,-3.21, 6.28, 11.04, 2.24, 1.59, 7.37, repro,
2003-06-24,-3.24, 7.02, 6.19, 2.28, 1.67, 7.65, repro,
2003-06-25,-3.02, 6.50, 14.72, 2.31, 1.61, 7.61, repro,
2003-06-26,-2.51, 6.25, 2.90, 2.24, 1.61, 7.41, repro,
2003-06-27,-0.34, 7.47, 11.78, 2.26, 1.62, 7.49, repro,
2003-06-28,-1.99, 7.70, 6.32, 2.30, 1.66, 7.63, repro,
2003-06-29,-2.91, 7.22, 9.70, 2.32, 1.65, 7.67, repro,
2003-06-30,-0.10, 9.74, 2.10, 2.27, 1.63, 7.53, repro,
2003-07-01,-2.42, 5.56, 8.94, 2.27, 1.62, 7.49, repro,
2003-07-02,-2.78, 7.09, 3.60, 2.26, 1.61, 7.45, repro,
2003-07-03,-1.49, 8.66, 1.55, 2.31, 1.68, 7.77, repro,
2003-07-04,-1.56, 8.10, 0.46, 2.29, 1.67, 7.73, repro,
2003-07-05,-2.71, 8.84, 5.62, 2.32, 1.64, 7.62, repro,
2003-07-06,-1.29, 7.28, 14.80, 2.32, 1.65, 7.65, repro,
2003-07-07,-0.23, 6.65, 7.35, 3.29, 2.31, 10.70, repro,
2003-07-08,-1.84, 6.70, 10.33, 2.26, 1.63, 7.49, repro,
2003-07-09,-2.42, 8.10, 9.65, 2.29, 1.63, 7.57, repro,
2003-07-10,-0.97, 7.89, 10.35, 2.27, 1.62, 7.50, repro,
2003-07-11,-1.41, 7.55, 5.16, 2.40, 1.68, 7.76, repro,
2003-07-12,-1.31, 9.83, 4.92, 2.28, 1.66, 7.67, repro,
2003-07-13,-0.00, 8.92, -0.06, 2.33, 1.65, 7.60, repro,
2003-07-14,-1.87, 8.73, 0.05, 2.27, 1.64, 7.53, repro,
2003-07-15,-2.27, 7.34, 9.57, 2.41, 1.71, 7.86, repro,
2003-07-16,-2.73, 9.36, 5.01, 2.39, 1.66, 7.71, repro,
2003-07-17,0.33, 7.27, 12.77, 2.49, 1.74, 7.99, repro,
2003-07-18,-1.39, 6.33, 3.28, 2.35, 1.65, 7.58, repro,
2003-07-19,-0.65, 8.09, 0.73, 2.28, 1.65, 7.57, repro,
2003-07-20,-1.30, 8.65, -0.62, 2.36, 1.66, 7.65, repro,
2003-07-21,-2.28, 8.33, 4.27, 2.42, 1.72, 7.74, repro,
2003-07-22,-2.56, 8.35, 1.10, 2.43, 1.70, 7.89, repro,
2003-07-23,-1.02, 6.73, 15.13, 2.28, 1.62, 7.49, repro,
2003-07-24,-0.90, 9.10, 8.32, 2.27, 1.61, 7.42, repro,
2003-07-25,-2.03, 10.59, 0.29, 2.36, 1.72, 7.78, repro,
2003-07-26,-1.31, 10.00, 7.79, 2.42, 1.70, 7.80, repro,
2003-07-27,0.77, 7.84, 8.27, 2.30, 1.65, 7.59, repro,
2003-07-28,-2.88, 7.71, 6.40, 2.36, 1.67, 7.72, repro,
2003-07-29,-2.00, 8.44, 1.65, 2.33, 1.70, 7.63, repro,
2003-07-30,-1.11, 10.03, 9.44, 2.39, 1.72, 7.76, repro,
2003-07-31,-0.00, 8.72, 6.24, 2.33, 1.68, 7.71, repro,
2003-08-01,0.71, 10.77, 14.89, 3.43, 2.60, 11.92, repro,
2003-08-02,-1.12, 7.92, 9.56, 2.35, 1.74, 7.79, repro,
2003-08-03,-2.18, 8.88, 12.45, 2.44, 1.81, 7.99, repro,
2003-08-04,-3.52, 9.40, 4.25, 2.27, 1.65, 7.54, repro,
2003-08-05,-0.99, 8.40, 7.79, 2.31, 1.69, 7.77, repro,
2003-08-06,-0.88, 9.71, 16.19, 2.27, 1.64, 7.54, repro,
2003-08-07,-1.64, 9.13, 8.04, 2.39, 1.70, 7.95, repro,
2003-08-08,-1.60, 9.02, 0.94, 2.47, 1.80, 8.31, repro,
2003-08-09,-1.05, 8.99, 3.65, 2.21, 1.60, 7.31, repro,
2003-08-10,-1.41, 9.89, 5.56, 2.24, 1.64, 7.47, repro,
2003-08-11,-0.47, 9.25, 11.12, 2.26, 1.63, 7.47, repro,
2003-08-12,-1.84, 8.09, 14.28, 2.27, 1.63, 7.51, repro,
2003-08-13,-2.19, 7.54, 14.85, 2.80, 2.06, 9.32, repro,
2003-08-14,-1.86, 7.76, 6.82, 2.29, 1.66, 7.63, repro,
2003-08-15,-2.21, 9.35, 5.07, 2.23, 1.63, 7.45, repro,
2003-08-16,-2.39, 8.25, 6.33, 2.25, 1.62, 7.42, repro,
2003-08-17,-1.85, 8.99, 8.35, 2.23, 1.60, 7.36, repro,
2003-08-18,-1.31, 8.15, 10.38, 2.65, 1.91, 8.81, repro,
2003-08-19,-2.48, 9.26, 8.16, 2.28, 1.64, 7.53, repro,
2003-08-20,-2.31, 8.25, 14.26, 2.24, 1.62, 7.47, repro,
2003-08-21,-2.49, 9.39, 12.03, 2.24, 1.62, 7.46, repro,
2003-08-22,-2.57, 9.76, 14.65, 2.40, 1.77, 8.03, repro,
2003-08-23,-1.22, 11.70, 6.53, 2.24, 1.63, 7.47, repro,
2003-08-24,-2.89, 9.39, 12.50, 2.26, 1.64, 7.58, repro,
2003-08-25,-3.56, 10.15, 10.49, 2.44, 1.78, 8.17, repro,
2003-08-27,-0.59, 9.44, 16.67, 2.52, 1.89, 8.62, repro,
2003-08-28,-1.26, 8.89, 11.16, 2.24, 1.63, 7.43, repro,
2003-08-29,-0.84, 9.79, 10.98, 2.25, 1.63, 7.49, repro,
2003-08-30,-0.47, 8.74, 7.45, 2.22, 1.59, 7.33, repro,
2003-08-31,-4.03, 8.31, 6.17, 2.20, 1.60, 7.33, repro,
2003-09-01,-2.34, 7.44, 9.08, 2.25, 1.65, 7.59, repro,
2003-09-02,-0.28, 8.93, 9.65, 2.20, 1.59, 7.26, repro,
2003-09-03,-0.84, 9.43, 12.41, 2.20, 1.60, 7.27, repro,
2003-09-04,-1.11, 10.85, 9.59, 2.21, 1.60, 7.32, repro,
2003-09-05,-4.52, 10.31, 15.01, 2.23, 1.61, 7.40, repro,
2003-09-06,-3.47, 9.34, 12.75, 2.23, 1.61, 7.43, repro,
2003-09-07,-0.67, 12.83, 0.02, 2.34, 1.73, 7.98, repro,
2003-09-08,-4.52, 11.13, 10.86, 2.22, 1.60, 7.33, repro,
2003-09-09,-3.95, 10.27, 5.71, 2.23, 1.62, 7.43, repro,
2003-09-10,-3.82, 9.01, 9.17, 2.20, 1.60, 7.29, repro,
2003-09-11,-4.69, 10.82, 11.03, 2.37, 1.74, 8.06, repro,
2003-09-12,-6.67, 11.90, 10.31, 2.72, 2.03, 9.08, repro,
2003-09-23,-2.56, 7.81, 4.98, 2.41, 1.77, 8.18, repro,
2003-09-24,-2.41, 8.85, 5.60, 2.88, 2.16, 9.78, repro,
2003-09-26,-3.33, 7.70, 13.86, 2.39, 1.73, 7.92, repro,
2003-09-27,-3.49, 8.75, 7.71, 2.41, 1.73, 7.83, repro,
2003-09-28,-2.23, 9.27, 9.72, 2.31, 1.65, 7.54, repro,
2003-09-29,-1.17, 8.57, 6.82, 3.07, 2.17, 9.73, repro,
2003-09-30,-3.42, 6.84, 7.87, 2.38, 1.72, 7.84, repro,
2003-10-01,-1.73, 7.70, 10.73, 2.42, 1.78, 8.04, repro,
2003-10-02,-2.40, 7.94, 8.09, 2.39, 1.74, 7.85, repro,
2003-10-03,-3.40, 8.73, 21.39, 2.55, 1.78, 8.15, repro,
2003-10-04,-2.72, 6.47, 19.76, 2.45, 1.75, 7.98, repro,
2003-10-05,-3.28, 7.47, 13.44, 2.30, 1.65, 7.52, repro,
2003-10-06,-2.55, 8.90, 11.24, 2.35, 1.72, 7.78, repro,
2003-10-07,-3.52, 8.16, 28.08, 2.48, 1.79, 8.04, repro,
2003-10-08,-2.15, 10.38, 26.14, 2.39, 1.78, 7.91, repro,
2003-10-09,-1.86, 9.13, 22.51, 3.40, 2.54, 11.23, repro,
2003-10-10,-4.28, 8.18, 14.43, 2.35, 1.72, 7.75, repro,
2003-10-11,-1.09, 8.27, 8.49, 3.62, 2.69, 12.21, repro,
2003-10-12,-3.74, 7.61, 27.21, 2.29, 1.68, 7.64, repro,
2003-10-13,-3.82, 7.23, 18.03, 2.33, 1.69, 7.66, repro,
2003-10-14,-1.59, 7.96, 24.14, 2.48, 1.82, 8.27, repro,
2003-10-15,0.19, 3.57, 26.36, 3.82, 2.89, 13.29, repro,
2003-10-16,-4.85, 12.33, 5.02, 3.41, 2.72, 12.28, repro,
2003-10-17,-2.04, 12.28, 16.50, 2.50, 1.93, 8.73, repro,
2003-10-18,-0.91, 8.98, 22.07, 2.26, 1.68, 7.62, repro,
2003-10-19,-0.37, 7.33, 18.37, 2.22, 1.63, 7.41, repro,
2003-10-20,3.51, 11.26, 11.51, 2.28, 1.71, 7.73, repro,
2003-10-21,0.59, 13.72, 9.12, 2.48, 1.89, 8.66, repro,
2003-10-22,0.62, 9.46, 13.23, 2.80, 2.12, 9.89, repro,
2003-10-23,-3.01, 8.73, 14.10, 2.29, 1.68, 7.68, repro,
2003-10-24,-3.42, 7.46, 15.35, 2.34, 1.70, 7.74, repro,
2003-10-25,-5.48, 5.01, 10.18, 2.22, 1.62, 7.41, repro,
2003-10-26,-4.23, 4.76, 6.39, 3.21, 2.52, 11.38, repro,
2003-10-27,-3.58, 9.20, 28.75, 2.88, 2.00, 9.20, repro,
2003-10-28,-2.27, 11.55, 23.60, 2.20, 1.62, 7.42, repro,
2003-10-29,-3.30, 8.46, 8.36, 2.41, 1.82, 8.64, repro,
2003-10-30,-3.17, 6.09, 2.51, 2.48, 1.82, 8.48, repro,
2003-10-31,-3.95, 7.42, 11.99, 2.55, 1.79, 8.04, repro,
2003-11-01,-3.89, 7.55, 13.05, 2.37, 1.74, 8.03, repro,
2003-11-02,-4.82, 6.83, 15.99, 2.40, 1.73, 7.79, repro,
2003-11-03,-5.10, 7.46, 12.02, 2.43, 1.77, 8.30, repro,
2003-11-04,-4.82, 7.01, 6.94, 2.38, 1.74, 7.80, repro,
2003-11-05,-6.28, 8.05, -2.47, 2.20, 1.63, 7.43, repro,
2003-11-06,-6.76, 7.09, 4.21, 2.21, 1.62, 7.36, repro,
2003-11-07,-5.82, 7.52, 6.62, 2.28, 1.69, 7.68, repro,
2003-11-08,-2.92, 7.41, -0.98, 2.55, 1.96, 9.05, repro,